User: anonymous   Login
Location: Lancaster
(34.6980°N, 118.1360°W)
Time: 16:55:17
(UTC-07:00)
Language:

Hubble Space Telescope - Orbit

View from above orbital plane
View from above orbital plane
View from above satellite
View from above satellite

Ground track
Ground track

The orbit data is extracted from the following two-line orbital elements,

1 20580U 90037B   18170.24546024 +.00000375 +00000-0 +11960-4 0  9994
2 20580 028.4695 101.4987 0002836 158.7197 356.3110 15.09052782345693
Epoch (UTC): 19 June 2018 05:53:27
Eccentricity: 0.0002836
inclination: 28.4695°
perigee height: 537 km
apogee height: 541 km
right ascension of ascending node: 101.4987°
argument of perigee: 158.7197°
revolutions per day: 15.09052782
mean anomaly at epoch: 356.3110°
orbit number at epoch: 34569

The dashed part of the orbit path shows where the satellite is in the earth's shadow,  

DLR